Location: *
(43.0833°N, 13.0500°E)
Time: 10:04:03
(UTC+00:00)

Lacrosse 4 Rocket - Pass Details

Date: 15 November 2019
Orbit: 543 x 616 km, 68.0° (Epoch: 08 December)

Event Time Altitude Azimuth Distance (km) Brightness Sun altitude
Rises 16:41:17 0° 186° (S) 2,719 5.2 -10.6°
Reaches altitude 10° 16:43:36 10° 178° (S) 1,821 4.1 -11.0°
Maximum altitude 16:47:18 35° 112° (ESE) 901 2.0 -11.6°
Enters shadow 16:49:58 16° 54° (NE) 1,449 2.9 -12.1°
